Terug naar catalogus

COSMOS 1027

ActiefMilitairPO
NORAD 10991·PAYLOAD·🇷🇺 Russia

Gelanceerd Jul 27, 1978 vanaf Plesetsk Cosmodrome

Loading…

Volgende Passages (komende 24 uur)

TLE

VersSource: Space-Track

Epoch: Sep 14, 2026, 14:04 UTC

1 10991U 78074A   26257.58630082  .00000058  00000-0  43269-4 0  9991
2 10991  82.9368 310.7622 0027703 135.7459  29.0092 13.76701872417402

Volg COSMOS 1027 in realtime met AllMySat

Download on the App Store